Theta_e
328 328 328 327 327 328 329 328 326 327 328 329 328 328 328 328 328 328 328 328 328 327 327 327 326 326 327 327 327 326 326 326 326 324 323 324 325 325 325 325 324 323 323 322 322 321 320 319 318 317 316 316 316 316 316 316 316 315 315 315 315 314 314 313 312 311 311 310 310
328 328 327 324 324 326 328 328 327 327 328 329 329 329 329 328 328 328 328 328 328 328 328 328 327 327 327 327 326 326 326 326 325 324 323 324 324 324 324 323 323 322 321 321 321 320 319 318 317 316 315 315 315 315 315 315 315 315 314 314 314 313 313 312 311 311 310 310 309
327 328 328 328 328 328 328 328 328 329 330 330 329 329 329 329 328 328 328 328 328 328 328 327 327 327 327 327 327 326 326 326 325 324 323 323 323 323 323 322 322 320 320 320 319 319 318 317 316 315 314 315 315 314 314 314 314 313 313 313 312 312 311 311 311 310 310 309 309
327 327 328 328 329 329 328 328 328 329 330 329 330 330 329 329 328 328 328 328 328 328 328 328 327 326 326 326 326 326 325 323 324 323 322 322 322 322 322 321 320 320 319 319 319 318 318 317 316 315 315 315 314 314 313 313 313 312 311 311 311 310 310 309 310 309 309 308 308
325 326 327 327 329 329 329 329 329 329 329 330 329 329 329 329 328 329 328 327 327 328 328 329 327 326 325 325 325 325 324 322 319 320 322 321 321 321 321 321 320 319 319 318 318 317 316 316 316 315 314 314 313 313 312 312 312 311 310 310 310 309 309 308 308 308 307 306 305
324 325 327 327 328 329 329 329 329 329 329 329 329 329 329 329 329 328 328 327 328 328 328 326 325 324 324 325 325 324 323 322 320 320 320 320 320 320 320 319 318 318 318 318 317 316 315 315 314 314 314 313 312 312 312 312 311 309 309 308 308 308 307 307 306 306 305 304 302
322 324 326 327 328 328 329 329 329 329 329 328 329 328 329 329 329 329 329 328 328 328 326 323 323 323 324 324 323 323 322 321 321 320 320 319 319 319 318 317 317 317 317 317 316 315 314 314 313 311 310 309 310 311 311 311 309 308 307 306 306 306 305 305 305 304 303 302 300
321 323 324 326 327 328 329 329 329 329 329 328 328 328 329 329 329 329 329 328 327 326 324 323 324 324 324 323 323 322 321 320 320 319 319 319 318 318 317 316 316 316 316 316 315 314 313 312 310 309 308 308 308 309 309 309 308 307 306 304 304 303 303 303 303 302 302 300 299
320 321 323 325 326 327 328 328 329 329 328 328 328 328 329 329 329 328 328 326 325 324 324 322 323 323 323 322 321 321 320 319 319 319 319 318 317 317 316 316 315 315 315 315 314 313 311 310 308 307 307 307 306 307 307 307 307 305 304 303 302 302 301 301 301 300 300 299 297
319 320 322 324 325 326 328 328 329 329 328 328 328 328 327 324 326 327 327 325 324 323 323 322 322 322 322 321 321 320 319 319 318 318 317 317 316 316 315 314 314 313 313 313 312 311 309 308 307 306 306 306 305 305 306 306 305 304 303 301 300 300 300 300 299 299 298 297 296
319 320 321 322 324 325 326 327 328 328 327 327 327 328 327 324 326 327 326 324 323 322 322 321 321 321 320 320 319 319 318 318 317 317 317 316 315 315 314 313 312 312 311 310 310 309 308 306 306 305 304 304 304 304 304 304 303 302 301 299 299 298 298 298 298 297 296 296 295
319 320 321 322 323 324 325 326 326 326 326 326 326 327 327 327 327 326 324 322 321 321 320 320 320 320 319 319 318 317 317 317 317 316 316 315 315 314 313 312 311 310 310 309 308 307 306 305 304 304 303 303 303 303 302 303 302 300 299 298 298 297 296 296 296 295 295 294 294
318 319 321 322 323 324 324 324 325 325 325 325 325 325 326 326 325 323 322 320 319 319 319 318 318 318 318 318 317 317 316 316 315 315 314 314 313 312 311 311 309 309 308 307 307 306 305 304 304 303 302 302 302 302 301 301 300 299 298 297 296 295 295 294 294 294 293 293 293
315 317 318 320 321 322 323 323 323 323 323 323 324 324 324 324 322 321 320 319 318 318 317 316 316 316 316 315 315 315 315 315 314 314 313 312 311 311 310 309 308 307 307 306 306 305 304 303 303 302 301 301 301 300 300 300 299 298 297 296 295 294 293 293 293 293 292 292 292
311 313 315 317 319 320 321 321 321 321 321 321 322 322 322 321 319 318 318 318 317 316 315 315 314 313 313 313 313 313 313 313 312 312 311 310 309 309 308 307 306 306 305 305 304 304 304 303 302 301 301 300 300 299 299 299 298 297 296 295 294 293 292 292 292 292 292 291 291
308 310 311 313 315 317 318 319 319 319 318 318 318 319 319 318 318 317 315 315 315 314 313 312 312 311 310 310 311 311 311 310 310 309 309 308 307 307 306 305 305 304 304 303 303 302 302 302 302 301 300 299 299 298 298 297 297 296 295 294 293 292 292 291 291 291 291 291 290
307 308 309 310 312 313 315 317 317 316 316 315 315 315 316 315 315 314 312 312 312 312 311 310 310 309 308 307 308 308 308 308 308 307 307 306 306 305 304 304 303 303 302 302 301 301 301 301 300 300 299 298 298 297 297 296 295 294 294 293 292 292 291 291 291 291 291 291 290
307 307 308 309 310 311 312 314 315 315 314 312 312 313 313 313 312 312 310 310 310 310 309 308 307 306 306 306 306 306 306 307 306 306 305 304 304 304 303 302 302 302 301 301 301 300 299 299 299 298 298 297 296 296 295 295 294 293 292 292 292 291 291 291 291 291 291 291 290
307 307 307 308 309 310 310 312 313 312 311 311 310 311 311 311 310 310 309 309 309 308 307 306 305 305 304 304 305 304 304 305 305 304 304 303 303 302 302 302 301 301 301 300 300 299 298 298 297 297 296 295 295 294 294 293 292 292 291 291 291 291 291 291 291 291 291 291 290
306 307 307 308 308 309 310 310 310 310 309 309 309 309 309 309 308 308 308 308 307 307 306 304 303 303 303 303 303 303 303 303 303 303 302 302 302 301 301 301 300 300 300 299 299 298 297 296 296 295 295 294 293 293 292 292 291 291 291 290 290 291 291 291 291 291 291 290 290
306 307 307 308 308 309 309 308 307 307 307 308 307 306 306 306 306 306 306 306 306 305 304 303 302 301 301 302 302 301 301 302 302 302 301 301 300 300 300 300 299 299 299 298 297 296 296 295 294 294 293 292 292 291 291 290 290 290 289 289 290 290 290 290 290 290 290 290 289
305 305 305 306 305 305 304 304 304 304 304 305 304 304 304 304 304 304 304 304 304 303 302 301 301 301 301 301 301 300 300 300 300 300 300 300 299 299 299 299 298 298 297 296 296 295 294 293 293 292 292 291 290 290 289 289 288 288 288 288 289 289 289 289 289 289 289 289 289
302 302 301 301 300 300 300 301 301 301 301 301 301 301 301 301 301 301 301 301 301 301 301 300 300 300 301 300 300 299 299 299 299 298 298 298 298 298 297 297 297 296 295 295 294 293 292 292 291 291 290 289 289 289 288 288 287 287 287 287 287 288 288 288 288 288 288 288 288
299 299 298 298 297 298 298 298 298 298 298 298 298 298 298 298 298 298 299 299 299 299 299 299 300 300 300 299 298 298 297 297 297 297 296 296 296 296 296 296 295 294 294 293 292 292 291 290 290 289 289 288 288 288 287 287 287 287 287 287 286 287 287 287 287 287 287 287 287
296 296 296 296 296 296 296 296 296 296 296 295 295 294 293 292 293 294 295 297 297 298 298 298 298 298 298 297 296 296 296 296 295 295 295 294 294 294 294 294 293 292 292 291 291 291 290 289 289 288 288 288 287 287 287 287 287 286 286 286 286 286 286 286 286 286 286 286 286
294 294 294 294 294 294 294 294 294 294 293 293 293 291 290 289 290 291 292 293 294 295 296 297 296 296 295 296 295 295 295 295 294 294 293 293 292 292 292 292 291 291 290 288 290 290 290 290 289 288 287 287 287 286 286 286 286 286 286 286 285 285 284 284 284 285 285 286 286
293 292 292 291 291 291 292 292 291 291 290 290 290 289 288 287 288 288 288 289 289 290 292 293 294 294 293 294 294 294 294 294 293 293 292 291 291 291 291 290 290 289 288 287 289 290 290 290 289 288 287 287 286 286 286 285 286 286 286 285 285 285 284 284 284 284 284 285 285
291 291 290 290 289 289 290 290 289 289 289 289 289 288 287 286 287 287 287 287 288 289 290 291 292 293 293 293 293 293 293 293 292 292 291 291 291 290 290 289 289 288 287 288 290 290 290 290 289 289 287 286 286 286 286 285 285 285 285 285 285 284 284 284 283 283 283 284 284
290 289 288 288 287 287 288 288 288 287 287 287 287 287 286 286 286 286 286 287 288 290 291 292 292 292 292 292 292 292 292 292 292 291 291 290 290 289 289 288 288 287 288 289 290 290 290 290 289 289 288 287 286 286 286 285 285 285 284 284 284 284 284 283 283 283 283 283 283
289 287 286 286 286 286 286 286 286 286 286 286 286 286 286 286 286 286 286 287 289 290 292 291 292 292 292 292 291 291 291 291 291 291 290 290 289 289 288 287 287 287 287 289 290 290 290 290 289 289 288 288 286 286 286 285 285 284 284 284 284 284 283 283 283 283 283 283 282
287 286 286 286 286 286 286 286 286 286 286 286 286 285 285 286 286 287 287 288 290 291 291 291 291 291 291 291 291 291 291 291 290 290 289 289 288 288 287 287 286 286 287 289 290 290 290 289 289 289 288 288 286 285 285 285 285 284 284 284 284 283 283 283 283 283 282 282 282
286 286 286 286 285 285 285 285 285 286 286 286 285 285 286 287 288 288 289 290 290 290 290 290 290 290 291 291 291 291 291 290 290 289 289 288 288 287 287 286 286 286 287 289 289 290 290 289 289 289 288 288 285 285 285 285 285 284 284 284 284 283 283 283 283 283 282 282 282
286 285 286 285 285 285 285 285 285 285 286 285 285 285 286 288 288 289 289 290 290 290 290 290 290 290 290 290 290 290 290 289 289 288 288 288 287 287 286 286 286 287 288 289 289 289 289 289 289 289 288 287 285 284 284 284 284 284 284 284 284 284 283 283 283 283 282 282 282
286 285 285 285 285 285 285 285 285 285 286 285 285 286 287 288 288 288 289 289 290 290 290 290 290 290 290 290 290 289 289 288 288 288 288 287 287 287 286 286 286 287 288 289 289 289 289 289 289 288 287 285 284 284 284 284 283 283 283 283 283 283 283 283 283 283 283 283 282
286 285 285 285 285 285 285 285 285 285 285 285 285 286 287 288 288 288 288 289 289 290 290 290 290 290 290 290 289 289 288 287 287 287 287 287 287 286 286 286 286 287 289 289 289 289 289 289 289 288 286 284 283 283 283 283 282 282 282 282 282 283 283 283 283 283 283 283 282
286 285 285 285 285 285 285 285 285 285 285 285 286 286 287 288 288 288 288 288 288 289 289 289 289 289 289 289 288 288 287 286 286 286 286 286 287 286 286 286 286 287 289 289 289 289 289 289 288 287 286 284 283 283 283 282 282 282 282 282 282 282 282 282 282 282 282 283 283
286 285 285 285 285 285 285 285 285 285 285 285 286 287 287 287 287 287 287 287 288 288 288 288 288 288 288 288 287 287 287 287 286 286 285 286 286 287 286 286 286 287 288 289 289 289 289 288 288 287 285 283 282 282 282 282 281 281 281 281 281 281 281 281 281 281 282 282 282
286 285 285 285 285 285 285 285 285 285 285 286 286 286 286 286 286 286 286 287 287 287 287 288 288 288 288 287 287 287 287 287 286 286 285 285 286 286 287 286 286 287 287 289 289 289 289 288 288 286 284 282 282 282 281 281 281 281 280 280 280 280 280 280 280 280 280 281 281
285 285 285 285 285 285 285 285 285 285 286 286 286 286 286 286 285 285 286 286 287 287 287 287 287 287 287 287 287 287 287 287 286 286 285 285 286 286 287 286 286 286 287 288 289 289 288 288 287 286 284 282 282 281 281 281 280 280 279 279 279 279 279 279 279 279 279 280 280
285 285 285 285 285 285 285 285 285 286 286 286 285 285 285 285 285 285 285 286 287 287 287 287 287 287 287 286 286 286 286 286 286 286 286 285 286 286 286 286 286 286 287 288 288 288 288 288 287 286 284 282 282 281 281 280 280 279 279 279 278 278 278 278 278 278 278 279 278
286 285 285 285 285 285 285 285 285 285 285 285 284 284 284 284 284 284 285 285 286 286 286 286 286 286 286 286 286 286 286 286 286 286 286 285 285 286 286 286 286 286 287 287 288 288 288 288 287 286 284 282 282 281 281 280 279 279 279 278 278 278 277 277 278 278 278 278 278
Wind_Speed
15 13 12 11 10 10 10 9 9 8 8 9 9 9 9 9 9 8 8 9 9 9 9 9 9 9 10 13 14 14 13 12 12 11 10 11 10 10 10 10 9 9 9 8 8 8 8 8 7 5 4 4 5 5 5 5 6 6 6 6 5 6 7 7 7 7 7 7 6
16 15 13 11 10 9 9 9 9 8 8 9 9 9 9 8 8 8 9 9 9 8 8 8 9 10 11 13 14 13 13 12 12 11 10 11 11 11 11 10 10 10 10 10 9 8 7 8 7 6 5 4 5 5 5 6 7 7 7 7 6 5 6 6 7 7 8 7 6
15 15 14 13 12 11 10 10 10 10 10 9 8 8 8 8 8 8 8 9 9 9 8 8 9 10 12 13 13 12 12 12 12 12 11 11 11 11 11 10 10 10 9 9 9 8 7 8 7 6 5 5 6 6 6 6 6 7 7 7 5 5 5 5 6 6 6 6 6
15 15 14 14 14 14 12 10 11 11 10 9 9 8 8 8 8 8 8 9 10 10 9 8 9 10 11 12 13 12 12 11 12 12 11 10 11 12 12 11 10 10 10 9 9 9 9 8 6 5 6 7 7 7 6 6 7 6 6 6 5 5 5 5 5 5 5 5 5
15 14 14 14 15 14 13 11 11 10 10 9 8 8 7 7 8 8 9 9 9 9 10 10 9 10 11 12 13 13 12 12 11 11 11 11 11 12 12 11 11 10 10 9 9 9 9 9 6 5 5 7 6 6 6 7 7 7 6 5 5 5 5 5 5 4 4 4 4
13 13 13 12 13 12 11 10 10 10 9 9 9 8 7 6 6 7 8 8 9 9 10 10 10 10 11 12 13 13 12 12 11 11 11 11 11 11 11 11 11 10 9 9 9 9 9 8 5 4 4 5 5 6 7 8 8 7 6 5 5 4 5 5 5 4 4 5 5
12 12 13 12 12 11 10 10 10 9 9 8 10 10 9 8 7 8 8 8 7 7 8 7 9 10 11 12 12 12 11 11 11 12 12 11 11 11 11 11 10 10 9 9 9 9 8 7 5 4 4 4 4 6 8 8 7 7 7 6 5 4 5 5 5 4 5 6 7
10 11 12 12 12 12 11 11 10 9 8 8 10 11 11 10 10 9 8 7 6 6 6 6 10 11 11 12 12 12 12 12 12 12 12 11 11 11 11 11 11 10 10 9 9 9 7 6 5 4 4 4 4 6 7 9 8 8 8 7 5 4 4 4 4 4 5 7 7
10 10 10 10 10 10 11 11 11 10 9 9 10 11 11 11 11 10 8 6 6 6 6 7 10 11 12 13 13 13 12 12 12 12 11 11 12 12 12 11 11 10 9 9 9 9 8 6 5 5 5 5 5 6 7 9 9 9 8 7 6 5 5 5 5 5 6 7 7
10 10 9 9 9 9 9 10 10 10 11 10 11 10 10 9 10 9 8 6 6 7 8 8 9 10 11 13 13 12 12 12 12 12 12 12 13 13 12 11 11 10 9 8 8 8 8 6 6 5 5 5 6 7 8 8 9 9 8 6 6 7 7 6 6 7 7 6 7
11 10 10 9 9 9 8 8 8 8 9 10 10 9 8 8 8 8 7 7 7 8 9 9 10 10 10 11 11 11 11 11 11 11 12 12 12 13 12 11 12 11 10 9 8 7 6 6 7 7 7 6 7 8 8 8 9 9 8 7 8 8 8 8 7 7 7 7 7
11 11 10 10 9 8 7 8 7 7 7 8 9 9 8 8 8 7 8 8 9 9 9 9 10 10 10 9 9 10 10 11 11 11 11 12 12 12 12 12 12 12 11 10 8 7 6 6 8 8 9 8 7 7 8 9 9 9 9 8 9 8 8 8 8 7 6 7 7
10 10 10 9 9 9 8 7 6 6 7 8 8 8 8 7 7 8 8 9 9 9 8 8 9 9 9 9 9 9 10 10 11 11 11 12 12 12 12 11 11 11 11 10 8 7 7 8 9 9 10 9 7 7 8 9 9 9 9 10 9 9 8 8 8 7 7 8 7
9 9 9 9 9 8 8 7 6 6 6 7 7 7 7 7 7 8 9 9 9 8 8 8 7 7 8 9 9 9 10 10 11 11 11 11 11 11 11 11 11 11 10 9 8 8 8 8 9 10 10 10 9 9 9 9 9 9 10 10 10 10 9 9 8 8 8 8 8
8 8 8 8 8 8 7 7 5 5 5 5 6 6 6 6 7 8 8 9 8 8 8 7 6 6 6 8 9 9 10 10 11 11 11 11 11 11 11 11 11 11 10 9 8 8 9 9 10 10 10 10 10 10 9 9 9 9 9 10 10 10 10 9 9 9 9 9 9
7 7 7 7 7 7 7 6 4 3 3 3 4 4 5 5 6 7 8 9 8 7 7 8 7 6 6 7 8 9 9 10 10 11 11 11 11 11 11 11 11 11 11 10 9 9 9 9 10 10 10 10 10 10 10 9 9 9 9 9 10 10 10 10 9 9 9 9 9
7 7 7 7 7 7 7 6 4 3 2 2 2 3 4 4 5 6 7 8 7 7 8 8 7 7 7 7 7 7 8 9 9 10 10 11 11 11 11 11 11 11 11 11 10 9 9 9 9 9 10 10 10 10 10 9 9 9 9 9 9 9 10 10 10 10 9 9 10
7 7 7 7 7 8 7 6 4 3 2 2 2 3 3 4 5 5 6 7 8 9 9 9 7 7 8 8 7 7 7 9 9 9 10 10 11 11 11 11 11 11 11 11 11 10 10 10 10 10 10 10 10 10 9 9 9 9 9 9 9 9 9 9 9 9 9 9 9
6 6 7 7 7 7 7 5 4 3 3 2 2 3 3 4 5 6 6 7 8 9 10 9 8 8 8 8 8 7 7 8 10 10 10 10 10 10 10 11 11 11 11 11 11 11 11 11 11 10 10 10 9 9 9 9 8 8 8 8 8 8 8 9 8 8 8 9 9
5 5 5 6 5 5 5 3 3 3 3 3 3 3 4 4 5 6 6 7 8 9 10 10 9 8 8 8 8 7 6 7 9 10 10 9 9 10 10 11 11 11 10 10 10 11 11 11 11 11 11 10 10 10 9 9 8 8 8 8 8 8 8 8 8 8 8 8 8
4 4 3 3 2 2 2 2 3 4 4 4 4 4 4 5 5 6 6 7 8 8 9 9 9 9 9 9 9 8 7 6 8 9 10 10 10 10 10 10 10 10 10 10 10 11 11 11 11 11 11 11 10 10 9 9 9 9 8 7 7 7 8 7 8 8 8 8 8
2 1 1 2 2 3 3 4 4 4 4 5 4 4 5 5 5 5 6 6 7 8 8 9 9 9 10 9 9 8 7 6 7 8 9 9 9 9 9 10 10 10 10 10 10 11 11 11 11 11 11 10 10 10 10 9 9 9 9 8 8 8 7 7 7 7 8 8 8
3 3 4 4 4 4 4 4 4 5 5 5 5 5 5 5 5 6 6 6 7 7 8 7 8 8 9 9 9 8 8 8 8 8 8 8 9 9 9 9 9 9 9 9 10 10 11 10 10 10 9 9 10 10 10 10 9 9 10 10 9 8 8 7 7 7 7 7 7
4 4 4 4 4 5 5 5 5 5 5 5 5 5 5 5 6 6 6 7 7 7 7 6 6 7 8 8 8 8 8 9 9 8 8 8 9 9 9 9 8 8 8 7 9 9 10 9 9 9 9 9 9 9 9 9 9 10 10 10 10 9 8 7 7 7 7 7 7
4 4 4 4 4 5 5 5 5 5 5 5 5 5 5 5 5 6 6 7 7 7 7 7 7 7 7 7 7 7 8 9 10 10 9 9 9 9 9 8 7 7 6 6 9 11 11 10 10 9 9 9 9 9 9 9 9 10 10 10 10 10 9 8 8 7 7 7 6
4 4 4 4 5 5 5 5 5 5 6 6 6 6 5 5 5 5 6 6 6 7 7 7 7 7 7 7 7 7 7 7 8 9 9 9 9 9 8 7 6 5 5 6 11 13 14 14 12 11 9 9 9 9 9 8 9 9 10 10 9 9 9 9 9 8 7 6 6
3 4 4 4 5 5 5 5 5 5 5 6 6 6 5 5 5 5 6 6 6 6 6 6 6 6 6 7 8 8 7 7 7 8 9 9 10 9 8 7 5 5 6 8 13 15 16 16 15 13 11 9 9 9 9 9 9 9 9 9 9 9 9 10 10 9 8 7 7
3 3 4 5 5 5 5 5 5 5 5 6 6 5 5 5 6 6 6 6 6 6 5 5 5 5 5 5 7 7 8 7 7 7 8 8 9 9 8 7 5 5 7 12 15 17 17 17 17 15 13 10 9 9 9 9 9 9 8 8 8 8 9 9 9 9 9 9 8
3 3 4 5 5 5 5 5 5 5 5 6 6 6 6 6 6 6 6 6 6 6 5 5 4 4 4 5 6 6 7 7 7 7 8 8 8 8 7 7 6 8 11 15 17 17 17 17 17 17 15 12 9 7 7 8 8 8 8 7 8 8 8 8 8 8 9 9 8
3 3 4 5 5 5 5 5 5 5 5 5 6 6 6 6 6 6 6 5 5 5 5 5 4 4 5 6 6 6 6 6 7 7 8 9 8 7 7 6 6 8 12 17 17 17 17 17 17 17 16 14 9 7 7 7 8 8 8 7 8 8 8 8 9 9 9 9 9
3 4 4 5 5 5 5 5 5 5 5 5 6 6 6 6 6 6 5 5 4 4 4 5 5 5 5 6 6 6 7 7 7 7 8 9 8 7 7 7 7 9 12 18 17 17 17 17 17 17 16 14 9 7 7 7 7 7 7 7 8 9 9 8 9 9 10 10 10
3 4 4 5 5 5 5 5 5 5 6 6 6 6 6 6 6 6 5 4 4 4 5 5 5 5 5 5 6 6 7 7 7 8 8 8 8 7 7 7 7 9 12 17 17 17 17 17 17 17 16 14 9 7 7 7 7 7 7 7 8 8 8 7 8 9 10 10 10
4 4 4 5 5 5 5 5 5 5 6 6 5 5 5 6 5 5 4 4 4 4 5 5 6 6 6 6 6 7 7 7 7 8 8 8 8 8 7 7 7 9 13 17 17 17 17 17 17 16 15 13 8 7 7 7 6 5 6 6 7 7 8 7 8 8 9 10 9
4 4 4 5 5 5 5 5 5 5 6 6 5 5 5 5 5 5 4 4 3 4 4 5 5 5 5 6 6 6 6 6 6 7 8 8 8 8 7 6 6 9 14 17 17 17 17 17 17 16 14 11 7 6 7 7 5 5 6 6 7 6 6 6 7 7 8 8 8
4 4 4 5 5 5 5 5 5 5 6 6 5 5 5 5 5 5 4 4 3 3 4 4 4 4 4 4 5 5 6 5 6 6 7 7 8 8 8 7 7 10 15 17 17 17 17 17 16 16 14 10 6 6 6 7 6 6 6 7 7 6 6 5 5 6 6 7 7
4 4 5 5 5 5 5 5 5 5 5 5 5 5 5 4 4 4 4 3 4 4 4 4 4 4 4 4 4 4 5 6 6 6 6 6 7 8 9 8 9 12 15 17 17 17 17 17 17 16 13 9 6 5 5 6 5 6 7 7 7 6 6 5 5 5 5 5 6
4 4 4 5 5 5 5 5 5 5 5 5 5 5 5 5 4 4 3 3 4 4 4 4 4 5 5 5 4 5 5 6 6 6 6 5 6 7 8 9 9 12 15 17 17 17 17 17 17 15 12 8 6 5 5 5 5 5 6 7 7 6 6 4 4 4 4 4 4
4 4 4 5 5 5 5 5 5 5 5 5 5 5 4 4 4 4 3 3 3 4 4 4 4 4 4 5 5 5 6 6 6 6 6 5 5 6 8 9 9 11 13 16 17 17 17 17 17 15 12 7 6 6 5 5 5 5 6 6 6 6 5 4 4 4 4 4 4
3 3 4 4 4 5 5 4 4 4 5 5 4 4 4 4 4 3 3 2 3 4 4 4 4 4 4 5 5 5 5 6 6 6 5 4 4 5 7 9 9 10 11 15 17 17 17 18 17 15 12 7 6 5 5 5 6 6 6 5 5 5 5 4 4 3 4 4 4
3 3 3 3 4 4 4 4 4 4 4 4 4 4 4 4 4 3 3 2 2 3 3 4 4 4 5 5 5 5 6 5 5 5 4 4 4 4 6 7 8 9 11 15 17 17 17 17 17 15 12 6 5 5 5 5 6 6 6 5 5 5 5 4 4 4 4 5 4
3 3 3 3 4 4 4 4 4 4 4 4 4 4 4 4 4 4 3 3 3 3 3 4 4 5 5 4 5 5 6 6 6 5 4 3 3 4 5 6 8 9 10 13 16 17 17 17 17 15 12 6 5 4 5 5 6 6 6 6 6 5 5 5 4 4 4 5 5
Wind_Direction
209 209 210 209 208 208 210 212 211 211 209 205 202 200 198 196 195 194 193 196 200 201 201 199 196 194 190 184 185 187 188 188 186 185 186 187 183 180 179 177 174 173 172 169 165 162 160 158 156 155 154 155 155 156 157 158 159 163 165 165 161 161 163 164 159 158 159 162 160
210 210 210 209 207 207 209 210 209 210 211 208 204 200 197 196 195 194 194 196 199 201 201 200 195 191 187 182 182 184 185 184 183 182 182 184 179 176 174 172 170 169 168 166 163 161 160 159 157 155 154 155 156 156 157 160 159 160 161 160 157 157 159 160 157 159 163 165 162
211 210 210 210 209 208 209 210 209 208 209 210 206 202 198 196 194 194 194 195 198 200 201 200 194 189 184 180 180 182 183 181 180 179 179 182 177 174 172 169 167 165 164 164 164 163 162 160 159 157 157 159 160 157 155 155 154 155 155 155 153 154 156 155 155 158 162 165 164
213 212 212 211 211 210 210 211 209 207 206 209 208 205 201 197 194 193 193 194 197 200 201 198 192 187 183 179 179 180 180 177 177 176 176 178 175 174 172 168 166 164 164 164 165 164 163 161 160 159 159 160 158 156 154 152 151 151 151 152 153 152 152 149 151 156 160 163 162
215 214 213 213 212 212 212 213 211 207 205 207 208 207 203 199 196 193 192 192 195 198 198 195 190 185 182 179 178 177 176 173 173 174 175 175 174 173 172 168 167 165 164 164 165 164 163 161 159 158 159 157 156 154 152 151 150 148 147 149 153 152 149 146 150 154 158 157 153
218 217 216 216 214 213 214 215 213 209 206 205 206 206 204 200 195 191 189 189 191 194 194 190 186 182 180 177 176 175 173 170 171 173 174 174 173 172 170 168 167 165 164 164 164 163 161 159 155 153 151 148 147 148 148 150 148 146 145 147 150 149 148 149 152 154 155 153 146
224 220 219 218 215 213 213 213 213 211 208 206 207 206 204 199 194 190 187 183 183 186 186 181 181 179 177 174 174 173 172 171 173 175 176 173 171 170 169 167 167 165 163 164 163 161 158 153 147 142 140 137 138 144 148 149 147 146 146 147 145 144 145 150 150 152 152 150 143
230 226 222 220 218 215 214 212 212 210 208 207 208 207 204 201 196 190 183 175 175 176 176 175 180 179 176 174 175 174 172 172 174 176 176 171 169 169 168 167 166 165 163 163 162 159 154 146 140 138 137 135 135 142 147 148 147 146 145 144 140 138 137 140 142 146 146 144 138
233 230 226 223 221 218 216 213 212 211 210 211 211 208 205 202 196 189 180 171 172 172 171 175 178 177 174 174 175 174 173 173 175 175 174 170 170 169 168 167 166 164 161 161 159 155 151 142 138 138 140 140 140 143 146 147 146 145 143 140 137 134 132 131 139 141 140 136 132
233 230 227 225 222 221 218 215 215 215 214 215 214 210 206 201 196 188 179 169 168 170 172 176 175 173 173 174 175 173 172 172 173 173 172 170 170 168 167 166 165 162 158 157 155 151 147 141 139 140 140 139 140 142 144 146 145 144 142 137 136 136 136 137 139 139 136 132 131
233 230 227 225 221 220 219 216 217 217 216 216 214 211 206 200 195 186 174 163 166 171 174 175 172 171 171 173 173 171 170 170 171 170 170 169 169 168 166 165 163 160 156 155 152 150 147 143 141 141 140 137 138 141 144 145 143 141 138 134 136 138 139 140 139 136 134 131 130
232 232 230 227 221 217 216 215 217 218 218 218 215 212 208 202 193 180 168 162 168 172 173 172 171 170 169 170 170 168 167 167 168 167 167 168 167 166 164 162 160 158 156 154 153 152 149 146 143 142 141 139 140 143 146 145 142 139 137 136 138 139 140 140 139 137 134 132 129
233 234 232 229 223 217 213 214 216 217 218 219 216 212 207 200 187 174 166 166 169 169 169 169 169 169 168 167 166 165 165 166 165 165 164 165 163 162 161 160 157 156 154 155 155 154 151 148 145 144 143 143 144 146 147 147 144 142 141 141 142 142 142 142 140 137 134 133 132
235 237 236 233 227 219 213 210 213 214 215 215 212 207 199 189 179 171 167 167 167 164 162 164 166 166 165 163 162 162 161 162 161 161 160 159 159 159 158 157 155 153 153 154 155 154 152 149 148 147 146 146 145 146 147 148 147 146 146 147 146 146 145 143 140 138 136 137 137
234 237 239 239 232 223 216 210 211 212 211 210 203 195 186 179 172 168 166 165 162 159 156 157 158 157 156 157 158 158 158 158 158 157 156 155 156 156 156 154 153 152 151 151 152 152 152 150 149 148 147 146 146 146 147 148 148 149 150 150 149 148 146 145 143 142 142 143 143
229 233 236 239 234 228 221 213 212 211 209 205 192 182 175 171 165 161 160 159 155 152 150 151 148 145 144 148 151 152 153 154 154 153 152 152 154 155 154 152 151 151 150 150 150 150 150 150 149 148 147 146 146 147 147 148 148 148 149 149 148 147 147 147 146 146 147 147 148
223 225 228 232 232 228 223 215 211 206 199 187 171 166 163 161 156 154 153 152 148 147 146 146 142 139 139 142 145 147 150 152 151 150 149 151 153 153 152 150 150 150 149 150 150 149 148 147 146 145 144 144 145 146 147 147 146 147 147 147 146 147 147 148 149 149 150 151 152
222 221 222 224 226 226 223 215 204 189 168 154 149 150 150 149 147 147 146 146 146 146 144 141 138 139 141 143 146 148 150 151 149 148 148 151 152 152 151 149 148 148 149 151 150 149 147 145 143 142 141 142 143 144 145 145 144 145 145 144 144 144 145 147 149 151 152 154 153
222 220 220 221 223 224 221 211 186 162 146 139 139 139 140 140 141 141 141 144 146 145 143 140 139 140 143 145 147 148 149 150 146 145 146 149 150 149 148 147 147 148 150 151 150 149 147 145 143 142 141 142 142 142 142 141 141 142 142 141 141 141 143 145 148 150 152 153 150
219 219 218 219 222 223 217 191 151 138 135 135 132 133 134 135 136 138 140 144 144 143 142 141 142 143 144 145 145 145 146 145 142 143 144 146 146 146 146 146 147 149 151 151 150 149 148 145 144 144 143 143 142 141 140 139 139 138 138 137 137 138 140 143 145 147 148 148 147
214 213 213 209 213 205 170 116 115 120 126 130 128 128 128 129 132 135 138 139 139 139 141 143 144 146 146 146 145 144 142 138 139 142 144 144 145 145 145 146 148 150 151 151 150 150 149 147 147 146 146 145 143 142 141 139 139 138 136 134 134 135 137 140 142 144 145 145 145
173 146 113 93 86 84 87 92 102 111 117 120 119 118 118 121 123 125 127 128 131 135 140 143 146 148 149 148 145 142 139 135 138 140 142 143 143 143 144 145 148 150 152 152 152 151 150 148 147 147 145 144 143 142 142 141 140 138 136 133 132 133 135 137 141 143 143 143 142
103 93 85 79 81 83 87 94 99 102 105 105 105 106 108 111 113 115 117 120 126 131 135 139 143 147 147 144 141 138 136 134 135 137 138 139 140 140 142 144 148 151 153 154 153 151 149 146 145 144 142 142 142 142 142 142 141 140 138 136 135 135 136 138 141 141 141 139 136
91 88 85 84 87 91 94 98 99 98 98 98 98 98 100 103 107 112 116 120 123 126 130 132 137 139 138 134 133 135 136 137 137 137 137 137 137 138 140 143 149 153 155 156 155 153 150 146 145 144 143 142 143 143 143 144 143 142 140 139 139 139 140 140 141 140 138 136 135
88 86 86 89 92 95 97 99 100 100 99 97 95 94 94 98 105 111 116 119 121 123 125 126 128 130 130 129 130 133 136 139 141 141 140 137 136 137 140 144 150 155 157 155 153 152 150 148 148 147 146 144 143 143 143 144 144 143 142 143 144 144 144 143 143 141 138 137 136
92 92 94 95 97 98 99 99 99 99 98 97 95 94 94 96 102 108 111 114 116 119 122 124 125 127 128 131 132 134 137 141 144 144 143 140 138 139 143 148 154 157 156 153 153 153 151 150 149 147 145 146 145 144 144 144 144 144 144 145 147 148 149 149 147 145 141 136 132
98 99 100 97 96 98 100 100 98 96 97 99 99 99 98 98 100 104 106 109 110 112 115 119 123 126 129 132 136 138 141 143 145 145 145 143 143 145 147 151 154 155 154 153 155 155 153 151 149 147 145 145 147 147 147 146 145 145 145 147 150 153 154 152 150 148 144 138 132
110 108 105 101 98 99 101 101 99 100 101 103 104 104 102 100 102 105 109 111 112 113 115 117 122 125 129 133 140 143 144 144 145 145 145 144 146 148 150 151 152 153 155 157 157 156 154 152 151 149 148 145 146 146 145 144 145 146 147 150 154 156 157 155 152 149 146 142 138
113 109 106 105 103 101 100 101 101 101 101 102 104 105 104 104 106 110 113 118 121 125 128 127 127 128 132 138 142 142 142 143 145 146 146 145 148 150 151 151 151 155 158 159 159 157 155 153 152 151 151 149 146 145 145 145 146 147 149 153 157 159 160 157 154 151 148 145 143
114 111 108 108 104 102 100 101 102 103 102 103 105 107 109 109 110 114 119 125 132 134 134 132 133 137 141 143 142 142 144 147 148 149 149 149 152 153 153 152 153 157 160 162 160 158 156 154 154 153 153 152 146 144 145 146 147 149 153 156 160 161 161 159 156 153 151 149 147
117 117 115 112 108 106 105 104 104 105 107 109 112 115 116 119 122 127 132 135 133 127 124 126 134 139 142 142 144 148 150 151 152 152 154 154 155 154 152 148 150 155 160 163 161 159 157 156 155 155 154 152 147 144 145 147 149 151 155 158 161 162 161 159 158 157 155 153 152
122 123 121 116 113 110 109 108 108 109 111 114 118 122 125 129 134 137 138 136 128 123 124 132 138 140 142 144 150 153 154 153 156 157 157 157 155 152 148 145 149 155 161 164 161 159 158 157 157 156 155 152 145 142 143 145 147 149 151 154 158 160 161 160 159 159 159 157 156
129 129 126 122 119 116 114 113 113 114 116 117 122 125 129 134 135 135 136 135 131 134 139 145 148 150 151 154 157 157 157 156 157 158 157 157 154 150 146 143 148 156 162 164 162 160 159 159 159 157 154 148 141 138 139 140 141 142 145 149 155 158 158 159 160 160 160 159 158
138 135 131 127 124 123 121 120 120 121 121 122 125 129 133 136 136 137 139 140 138 142 145 149 152 154 155 156 157 155 154 153 155 156 158 159 155 150 144 143 147 159 163 164 162 161 161 160 159 156 150 140 136 137 139 138 136 137 140 145 150 153 154 155 157 158 158 157 158
146 142 137 132 130 128 127 126 125 126 127 129 133 137 140 139 140 141 140 137 134 136 139 142 143 143 143 147 147 146 145 146 152 157 160 161 156 150 145 142 147 159 163 164 163 162 161 161 159 154 147 139 137 138 140 138 137 138 140 143 145 146 146 147 149 152 154 156 159
153 148 143 137 134 133 132 132 132 133 135 138 142 144 144 140 138 134 129 125 126 131 135 137 137 137 138 141 140 142 145 149 154 159 162 163 157 151 146 143 150 159 164 164 163 163 163 162 159 153 148 142 142 141 140 138 136 137 139 141 143 143 142 140 142 146 150 156 161
156 152 146 141 140 138 138 138 139 141 144 147 148 147 143 137 129 124 121 123 131 135 139 141 143 145 147 146 145 146 150 153 156 160 163 164 157 151 146 145 151 159 164 165 164 164 164 163 159 155 151 147 147 145 141 137 134 135 137 139 140 140 138 135 137 140 146 155 160
155 153 148 144 143 143 143 144 146 149 150 150 147 143 138 132 125 122 125 132 139 143 144 145 149 149 146 143 141 142 147 152 157 160 163 164 158 150 146 145 151 158 163 165 165 165 165 165 162 159 156 152 153 150 144 139 138 138 139 139 138 137 137 136 138 142 148 158 162
149 148 146 144 143 144 145 149 151 152 149 145 138 134 131 130 125 124 127 132 140 143 144 145 146 142 137 135 136 139 144 150 156 159 160 160 154 148 145 145 150 156 162 166 166 167 167 167 165 162 160 155 155 152 146 141 141 140 140 139 138 138 140 141 143 148 154 162 166
135 138 139 139 141 143 146 149 150 147 142 136 133 131 129 127 122 120 121 121 127 132 136 139 136 133 131 132 137 140 143 147 152 154 153 150 143 138 139 142 148 154 161 166 168 169 169 169 167 165 163 156 157 152 146 143 143 144 145 144 144 145 147 150 151 154 159 164 171
128 130 133 135 138 141 144 145 142 137 132 128 130 129 127 121 118 119 121 123 125 126 129 130 129 129 130 133 137 140 143 146 150 150 145 138 131 130 134 139 147 153 161 167 170 171 171 171 170 168 166 160 158 153 149 146 147 151 153 154 152 152 152 155 158 162 165 169 176